DLH3232 EDDF-LIRF

Flight info

Callsign DLH3232
Flight time 1h 26m
Altitude 23000
Route CINDY2D CINDY Z74 LAMPU/N0467F370 DCT NOMBO Y161 RIDAR DCT KONIN DCT BERAS DCT LIKDA DCT BAKOR DCT VESAL DCT VIC DCT KOPER DCT SUKOM DCT GAVRA DCT RITEB
Aircraft A343/H-SDE2E3FGHIJ4J5M1RWXY/LB1D1

Departure

Time 2026-05-08 06:21
Airport Frankfurt Main Airport (EDDF)

Arrival

Time 2026-05-08 07:47
Airport Rome–Fiumicino Leonardo da Vinci International Airport (LIRF)
Time Latitude Longitude Altitude Speed Heading
2026-05-08 05:57 50.04685 8.56038 367 ft 0 kts 340°
2026-05-08 05:58 50.04672 8.56046 367 ft 3 kts 340°
2026-05-08 05:58 50.04670 8.56047 367 ft 0 kts 340°
2026-05-08 06:10 50.04650 8.56059 368 ft 4 kts 336°
2026-05-08 06:10 50.04634 8.56071 365 ft 2 kts 328°
2026-05-08 06:11 50.04622 8.56078 367 ft 2 kts 303°
2026-05-08 06:11 50.04617 8.56091 368 ft 1 kts 26°
2026-05-08 06:11 50.04599 8.56099 365 ft 4 kts 304°
2026-05-08 06:11 50.04594 8.56119 368 ft 0 kts 242°
2026-05-08 06:12 50.04594 8.56118 362 ft 0 kts 242°
2026-05-08 06:13 50.04591 8.56109 363 ft 2 kts 242°
2026-05-08 06:13 50.04583 8.56079 366 ft 4 kts 248°
2026-05-08 06:13 50.04580 8.56068 367 ft 0 kts 249°
2026-05-08 06:14 50.04580 8.56067 367 ft 1 kts 249°
2026-05-08 06:14 50.04552 8.55980 368 ft 12 kts 228°
2026-05-08 06:15 50.04487 8.55943 367 ft 17 kts 193°
2026-05-08 06:15 50.04348 8.55932 368 ft 24 kts 163°
2026-05-08 06:15 50.04229 8.55931 363 ft 18 kts 202°
2026-05-08 06:15 50.04109 8.55959 360 ft 18 kts 165°
2026-05-08 06:16 50.04044 8.55917 363 ft 7 kts 246°
2026-05-08 06:16 50.04017 8.55811 358 ft 14 kts 248°
2026-05-08 06:16 50.03972 8.55637 360 ft 20 kts 248°
2026-05-08 06:16 50.03922 8.55410 361 ft 25 kts 251°
2026-05-08 06:17 50.03778 8.54822 356 ft 29 kts 248°
2026-05-08 06:17 50.03703 8.54507 350 ft 34 kts 249°
2026-05-08 06:17 50.03624 8.54170 351 ft 15 kts 249°
2026-05-08 06:18 50.03615 8.54134 352 ft 6 kts 249°
2026-05-08 06:18 50.03588 8.54028 353 ft 14 kts 248°
2026-05-08 06:18 50.03546 8.53851 352 ft 21 kts 249°
2026-05-08 06:18 50.03489 8.53612 352 ft 26 kts 250°
2026-05-08 06:19 50.03434 8.53385 348 ft 18 kts 244°
2026-05-08 06:19 50.03403 8.53340 335 ft 3 kts 206°
2026-05-08 06:19 50.03359 8.53344 338 ft 10 kts 158°
2026-05-08 06:19 50.03313 8.53429 335 ft 13 kts 125°
2026-05-08 06:20 50.03277 8.53552 350 ft 9 kts 84°
2026-05-08 06:20 50.03299 8.53620 353 ft 0 kts 67°
2026-05-08 06:20 50.03311 8.53666 354 ft 25 kts 68°
2026-05-08 06:21 50.03453 8.54263 355 ft 90 kts 69°
2026-05-08 06:21 50.03738 8.55453 360 ft 142 kts 70°
2026-05-08 06:21 50.04123 8.57063 597 ft 167 kts 67°
2026-05-08 06:21 50.04553 8.58786 1184 ft 174 kts 67°
2026-05-08 06:22 50.04989 8.60577 1823 ft 184 kts 70°
2026-05-08 06:22 50.05421 8.62588 2294 ft 206 kts 72°
2026-05-08 06:22 50.05852 8.64786 3123 ft 217 kts 72°
2026-05-08 06:22 50.06279 8.67073 4021 ft 224 kts 78°
2026-05-08 06:23 50.06299 8.69518 4977 ft 230 kts 104°
2026-05-08 06:23 50.05538 8.71665 5864 ft 235 kts 136°
2026-05-08 06:23 50.04142 8.73082 6785 ft 240 kts 155°
2026-05-08 06:23 50.02617 8.74167 7705 ft 242 kts 159°
2026-05-08 06:24 50.01017 8.74872 8628 ft 243 kts 176°
2026-05-08 06:24 49.99299 8.74680 9289 ft 258 kts 192°
2026-05-08 06:24 49.97470 8.74019 9947 ft 272 kts 195°
2026-05-08 06:24 49.95599 8.73286 10575 ft 286 kts 195°
2026-05-08 06:25 49.93621 8.72528 10941 ft 307 kts 194°
2026-05-08 06:25 49.91482 8.71729 11290 ft 327 kts 194°
2026-05-08 06:25 49.89198 8.70943 11627 ft 345 kts 190°
2026-05-08 06:25 49.86754 8.70775 12163 ft 358 kts 175°
2026-05-08 06:26 49.84283 8.71752 12854 ft 368 kts 157°
2026-05-08 06:26 49.82137 8.73860 13603 ft 376 kts 139°
2026-05-08 06:26 49.80459 8.77028 14329 ft 382 kts 120°
2026-05-08 06:26 49.79516 8.80886 15014 ft 389 kts 101°
2026-05-08 06:27 49.79418 8.85078 15697 ft 394 kts 84°
2026-05-08 06:27 49.79649 8.89326 16382 ft 399 kts 91°
2026-05-08 06:27 49.79258 8.93603 17059 ft 403 kts 104°
2026-05-08 06:27 49.78495 8.97797 17738 ft 407 kts 107°
2026-05-08 06:28 49.77657 9.02012 18404 ft 412 kts 108°
2026-05-08 06:28 49.76800 9.06269 18998 ft 417 kts 108°
2026-05-08 06:28 49.75950 9.10519 19591 ft 421 kts 107°
2026-05-08 06:28 49.75162 9.14910 20178 ft 425 kts 108°
2026-05-08 06:29 49.74038 9.19146 20764 ft 427 kts 121°
2026-05-08 06:29 49.72382 9.22969 21372 ft 429 kts 128°
2026-05-08 06:29 49.70513 9.26576 21958 ft 431 kts 132°
2026-05-08 06:29 49.68532 9.30078 22521 ft 435 kts 133°
2026-05-08 06:30 49.66497 9.33551 23085 ft 438 kts 134°
2026-05-08 06:30 49.64438 9.37044 23639 ft 442 kts 134°
2026-05-08 06:30 49.62232 9.40372 24074 ft 443 kts 142°
2026-05-08 06:30 49.59755 9.43212 24518 ft 444 kts 148°
2026-05-08 06:31 49.57152 9.45815 24959 ft 447 kts 150°
2026-05-08 06:31 49.54524 9.48283 25363 ft 449 kts 152°
2026-05-08 06:31 49.51815 9.50744 25792 ft 452 kts 152°
2026-05-08 06:31 49.49085 9.53192 26238 ft 455 kts 152°
2026-05-08 06:32 49.46342 9.55650 26638 ft 457 kts 152°
2026-05-08 06:32 49.43584 9.58130 27057 ft 460 kts 152°
2026-05-08 06:32 49.40814 9.60629 27445 ft 463 kts 152°
2026-05-08 06:32 49.38031 9.63147 27830 ft 465 kts 152°
2026-05-08 06:33 49.35303 9.65759 28205 ft 469 kts 147°
2026-05-08 06:33 49.32744 9.68917 28574 ft 474 kts 141°
2026-05-08 06:33 49.30315 9.72367 28956 ft 477 kts 139°
2026-05-08 06:33 49.27930 9.75926 29322 ft 480 kts 138°
2026-05-08 06:34 49.25558 9.79553 29659 ft 483 kts 137°
2026-05-08 06:34 49.23180 9.83220 29960 ft 486 kts 137°
2026-05-08 06:34 49.20787 9.86906 30250 ft 489 kts 137°
2026-05-08 06:34 49.18380 9.90597 30525 ft 491 kts 137°
2026-05-08 06:35 49.15958 9.94290 30876 ft 491 kts 138°
2026-05-08 06:35 49.13538 9.97966 31277 ft 490 kts 138°
2026-05-08 06:35 49.11154 10.01576 31661 ft 489 kts 138°
2026-05-08 06:35 49.08739 10.05223 32037 ft 488 kts 138°
2026-05-08 06:36 49.06328 10.08857 32474 ft 486 kts 138°
2026-05-08 06:36 49.03913 10.12441 32914 ft 483 kts 140°
2026-05-08 06:36 49.01459 10.15940 33280 ft 482 kts 140°
2026-05-08 06:36 48.98986 10.19396 33556 ft 483 kts 141°
2026-05-08 06:37 48.96500 10.22849 33858 ft 483 kts 141°
2026-05-08 06:37 48.94021 10.26298 34230 ft 483 kts 141°
2026-05-08 06:37 48.91551 10.29752 34539 ft 482 kts 141°
2026-05-08 06:37 48.89089 10.33208 34818 ft 481 kts 140°
2026-05-08 06:38 48.86631 10.36666 35085 ft 481 kts 140°
2026-05-08 06:38 48.84178 10.40116 35370 ft 481 kts 140°
2026-05-08 06:38 48.81732 10.43578 35673 ft 480 kts 139°
2026-05-08 06:38 48.79411 10.47125 35983 ft 479 kts 137°
2026-05-08 06:39 48.77129 10.50813 36213 ft 480 kts 136°
2026-05-08 06:39 48.74864 10.54545 36391 ft 482 kts 135°
2026-05-08 06:39 48.72595 10.58282 36592 ft 483 kts 136°
2026-05-08 06:39 48.70311 10.62015 36828 ft 482 kts 136°
2026-05-08 06:40 48.68015 10.65721 37058 ft 483 kts 136°
2026-05-08 06:40 48.65695 10.69430 37104 ft 485 kts 136°
2026-05-08 06:40 48.61043 10.76774 37102 ft 481 kts 139°
2026-05-08 06:41 48.55708 10.82714 37099 ft 474 kts 153°
2026-05-08 06:41 48.49933 10.87448 37097 ft 471 kts 156°
2026-05-08 06:42 48.44077 10.91917 37101 ft 472 kts 156°
2026-05-08 06:42 48.38213 10.96398 37101 ft 472 kts 156°
2026-05-08 06:43 48.32365 11.00911 37092 ft 473 kts 156°
2026-05-08 06:43 48.26549 11.05414 37096 ft 472 kts 156°
2026-05-08 06:44 48.20701 11.09933 37096 ft 472 kts 156°
2026-05-08 06:44 48.14856 11.14435 37093 ft 472 kts 156°
2026-05-08 06:45 48.09000 11.18933 37084 ft 472 kts 156°
2026-05-08 06:45 48.03156 11.23410 37085 ft 472 kts 156°
2026-05-08 06:46 47.97313 11.27874 37099 ft 472 kts 156°
2026-05-08 06:46 47.91509 11.32297 37092 ft 471 kts 156°
2026-05-08 06:47 47.85664 11.36740 37080 ft 471 kts 156°
2026-05-08 06:47 47.79875 11.41329 37083 ft 471 kts 154°
2026-05-08 06:48 47.74140 11.46068 37083 ft 471 kts 154°
2026-05-08 06:48 47.68394 11.50791 37085 ft 472 kts 155°
2026-05-08 06:49 47.62670 11.55446 37080 ft 472 kts 155°
2026-05-08 06:49 47.56870 11.60136 37087 ft 471 kts 155°
2026-05-08 06:50 47.51145 11.64748 37085 ft 471 kts 155°
2026-05-08 06:50 47.45375 11.69384 37082 ft 472 kts 155°
2026-05-08 06:51 47.39567 11.73914 37082 ft 470 kts 161°
2026-05-08 06:51 47.33372 11.76467 37104 ft 457 kts 178°
2026-05-08 06:52 47.27061 11.76627 37090 ft 453 kts 185°
2026-05-08 06:52 47.20795 11.76250 37093 ft 453 kts 187°
2026-05-08 06:53 47.14498 11.75819 37101 ft 452 kts 187°
2026-05-08 06:53 47.08225 11.75444 37090 ft 450 kts 186°
2026-05-08 06:54 47.01942 11.75092 37076 ft 452 kts 186°
2026-05-08 06:54 46.95676 11.74756 37086 ft 450 kts 186°
2026-05-08 06:55 46.89432 11.74417 37096 ft 448 kts 186°
2026-05-08 06:55 46.83196 11.74075 37088 ft 448 kts 186°
2026-05-08 06:56 46.77007 11.73737 37076 ft 448 kts 186°
2026-05-08 06:56 46.70779 11.73398 37085 ft 447 kts 186°
2026-05-08 06:57 46.64572 11.73063 37083 ft 447 kts 186°
2026-05-08 06:57 46.58352 11.72728 37079 ft 446 kts 186°
2026-05-08 06:58 46.52139 11.72381 37082 ft 447 kts 186°
2026-05-08 06:58 46.45918 11.72029 37081 ft 447 kts 186°
2026-05-08 06:59 46.39703 11.71681 37064 ft 446 kts 186°
2026-05-08 06:59 46.33540 11.71344 37073 ft 447 kts 186°
2026-05-08 07:00 46.27323 11.71010 37071 ft 447 kts 186°
2026-05-08 07:00 46.21099 11.70676 37072 ft 447 kts 186°
2026-05-08 07:01 46.15915 11.70400 37054 ft 447 kts 186°
2026-05-08 07:01 46.09697 11.70070 37065 ft 448 kts 186°
2026-05-08 07:02 46.03477 11.69737 37056 ft 447 kts 186°
2026-05-08 07:02 45.97255 11.69406 37067 ft 448 kts 186°
2026-05-08 07:03 45.91037 11.69076 37073 ft 447 kts 186°
2026-05-08 07:03 45.90920 11.69069 37073 ft 447 kts 186°
2026-05-08 07:04 45.87612 11.68892 37064 ft 446 kts 186°
2026-05-08 07:04 45.85416 11.68775 37062 ft 446 kts 186°
2026-05-08 07:06 45.82989 11.68648 37053 ft 446 kts 186°
2026-05-08 07:06 45.76777 11.68314 37048 ft 446 kts 186°
2026-05-08 07:07 45.70614 11.67994 37048 ft 445 kts 186°
2026-05-08 07:07 45.64410 11.67672 37051 ft 445 kts 186°
2026-05-08 07:08 45.58222 11.67290 37057 ft 445 kts 187°
2026-05-08 07:08 45.52032 11.66815 37064 ft 444 kts 187°
2026-05-08 07:09 45.45860 11.66344 37069 ft 444 kts 187°
2026-05-08 07:09 45.39731 11.65892 37070 ft 444 kts 187°
2026-05-08 07:10 45.33558 11.65445 37070 ft 444 kts 187°
2026-05-08 07:10 45.27397 11.65001 37062 ft 443 kts 187°
2026-05-08 07:11 45.21248 11.64559 37061 ft 442 kts 187°
2026-05-08 07:11 45.15106 11.64118 37053 ft 442 kts 187°
2026-05-08 07:12 45.08929 11.64148 37057 ft 445 kts 182°
2026-05-08 07:12 45.02744 11.64598 37059 ft 445 kts 181°
2026-05-08 07:13 44.96594 11.65007 37046 ft 445 kts 182°
2026-05-08 07:13 44.90403 11.65333 37055 ft 445 kts 182°
2026-05-08 07:14 44.84215 11.65623 37047 ft 445 kts 182°
2026-05-08 07:14 44.78028 11.65909 37057 ft 445 kts 182°
2026-05-08 07:15 44.76209 11.65993 37058 ft 445 kts 182°
2026-05-08 07:15 44.71069 11.66232 37058 ft 445 kts 182°
2026-05-08 07:16 44.64881 11.66522 37057 ft 445 kts 182°
2026-05-08 07:16 44.58694 11.66811 37042 ft 445 kts 182°
2026-05-08 07:17 44.52512 11.67542 37054 ft 448 kts 177°
2026-05-08 07:17 44.46333 11.68730 37058 ft 448 kts 176°
2026-05-08 07:18 44.40150 11.69994 37056 ft 449 kts 175°
2026-05-08 07:18 44.34008 11.71247 37059 ft 449 kts 175°
2026-05-08 07:19 44.27824 11.72494 37056 ft 449 kts 175°
2026-05-08 07:19 44.21640 11.73732 37053 ft 449 kts 175°
2026-05-08 07:20 44.15459 11.74967 37050 ft 449 kts 175°
2026-05-08 07:20 44.09277 11.76199 37051 ft 449 kts 175°
2026-05-08 07:21 44.03091 11.77429 37045 ft 449 kts 175°
2026-05-08 07:21 43.96910 11.78655 37039 ft 449 kts 175°
2026-05-08 07:22 43.91817 11.79664 37031 ft 450 kts 175°
2026-05-08 07:22 43.85621 11.80891 37026 ft 450 kts 175°
2026-05-08 07:23 43.79417 11.82114 37011 ft 450 kts 175°
2026-05-08 07:23 43.73242 11.83665 36845 ft 448 kts 170°
2026-05-08 07:24 43.70248 11.84692 36581 ft 441 kts 170°
2026-05-08 07:24 43.67255 11.85704 35876 ft 444 kts 171°
2026-05-08 07:24 43.64279 11.86686 35224 ft 446 kts 171°
2026-05-08 07:24 43.61250 11.87671 34575 ft 447 kts 171°
2026-05-08 07:25 43.58222 11.88645 33897 ft 447 kts 171°
2026-05-08 07:25 43.55192 11.89614 33129 ft 448 kts 171°
2026-05-08 07:25 43.49115 11.91548 31697 ft 448 kts 170°
2026-05-08 07:26 43.46077 11.92512 30963 ft 449 kts 170°
2026-05-08 07:26 43.43022 11.93479 30207 ft 451 kts 169°
2026-05-08 07:26 43.39956 11.94450 29347 ft 452 kts 169°
2026-05-08 07:26 43.36887 11.95420 28541 ft 451 kts 169°
2026-05-08 07:27 43.33855 11.96378 28032 ft 445 kts 169°
2026-05-08 07:27 43.30861 11.97324 27506 ft 439 kts 169°
2026-05-08 07:27 43.27901 11.98258 26963 ft 434 kts 169°
2026-05-08 07:27 43.24974 11.99179 26435 ft 430 kts 169°
2026-05-08 07:28 43.22066 12.00093 25908 ft 425 kts 169°
2026-05-08 07:28 43.19188 12.00997 25369 ft 423 kts 169°
2026-05-08 07:28 43.16323 12.01895 24858 ft 422 kts 169°
2026-05-08 07:28 43.13501 12.02780 24331 ft 420 kts 169°
2026-05-08 07:29 43.10656 12.03671 23807 ft 418 kts 169°
2026-05-08 07:29 43.07830 12.04555 23215 ft 415 kts 169°
2026-05-08 07:29 43.05028 12.05432 22678 ft 412 kts 169°
2026-05-08 07:29 43.02242 12.06302 22136 ft 408 kts 168°
2026-05-08 07:30 42.99475 12.07166 21603 ft 405 kts 168°
2026-05-08 07:30 42.96736 12.08019 21072 ft 403 kts 168°
2026-05-08 07:30 42.94014 12.08867 20569 ft 400 kts 168°
2026-05-08 07:30 42.91343 12.09699 20416 ft 387 kts 168°
2026-05-08 07:31 42.88762 12.10502 20290 ft 374 kts 168°
2026-05-08 07:31 42.86267 12.11278 20155 ft 362 kts 168°
2026-05-08 07:31 42.83840 12.12032 20011 ft 352 kts 168°
2026-05-08 07:31 42.81507 12.12755 19856 ft 343 kts 168°
2026-05-08 07:32 42.79210 12.13467 19697 ft 335 kts 168°
2026-05-08 07:32 42.76965 12.14162 19557 ft 326 kts 168°
2026-05-08 07:32 42.75467 12.14509 19427 ft 323 kts 174°
2026-05-08 07:32 42.72458 12.14476 18751 ft 330 kts 184°
2026-05-08 07:33 42.70191 12.14174 18338 ft 324 kts 185°
2026-05-08 07:33 42.67969 12.13835 17492 ft 319 kts 185°
2026-05-08 07:33 42.65768 12.13486 16535 ft 318 kts 185°
2026-05-08 07:33 42.63575 12.13133 15637 ft 316 kts 185°
2026-05-08 07:34 42.61395 12.12779 14774 ft 314 kts 186°
2026-05-08 07:34 42.59228 12.12428 13950 ft 312 kts 185°
2026-05-08 07:34 42.57082 12.12077 13066 ft 310 kts 185°
2026-05-08 07:34 42.54937 12.11729 12174 ft 308 kts 185°
2026-05-08 07:35 42.52822 12.11386 11342 ft 305 kts 186°
2026-05-08 07:35 42.50726 12.11046 10551 ft 300 kts 185°
2026-05-08 07:35 42.48654 12.10710 9684 ft 301 kts 186°
2026-05-08 07:35 42.46643 12.10384 9273 ft 290 kts 186°
2026-05-08 07:36 42.44570 12.10047 9204 ft 299 kts 186°
2026-05-08 07:36 42.42552 12.09720 9088 ft 293 kts 186°
2026-05-08 07:36 42.40528 12.09393 8985 ft 291 kts 186°
2026-05-08 07:36 42.38506 12.09344 8756 ft 292 kts 169°
2026-05-08 07:37 42.36536 12.10020 8553 ft 290 kts 162°
2026-05-08 07:37 42.34629 12.10847 8304 ft 286 kts 161°
2026-05-08 07:37 42.32766 12.11663 8109 ft 275 kts 161°
2026-05-08 07:37 42.31000 12.12428 7866 ft 257 kts 161°
2026-05-08 07:38 42.29330 12.13151 7505 ft 248 kts 162°
2026-05-08 07:38 42.27713 12.13840 7103 ft 241 kts 162°
2026-05-08 07:38 42.26126 12.14514 6639 ft 237 kts 162°
2026-05-08 07:38 42.24561 12.15178 6252 ft 234 kts 162°
2026-05-08 07:39 42.23029 12.15827 5981 ft 232 kts 162°
2026-05-08 07:39 42.21498 12.16480 5825 ft 229 kts 162°
2026-05-08 07:39 42.19979 12.17122 5599 ft 228 kts 162°
2026-05-08 07:39 42.18448 12.17767 5450 ft 227 kts 163°
2026-05-08 07:40 42.16948 12.18400 5271 ft 225 kts 163°
2026-05-08 07:40 42.15448 12.18964 4978 ft 223 kts 171°
2026-05-08 07:40 42.13927 12.18922 4715 ft 223 kts 189°
2026-05-08 07:40 42.12399 12.18503 4520 ft 225 kts 192°
2026-05-08 07:41 42.10865 12.18024 4212 ft 228 kts 192°
2026-05-08 07:41 42.09308 12.17538 3910 ft 230 kts 192°
2026-05-08 07:41 42.07733 12.17072 3596 ft 233 kts 188°
2026-05-08 07:41 42.06121 12.17100 3282 ft 233 kts 169°
2026-05-08 07:42 42.04565 12.17696 2966 ft 233 kts 160°
2026-05-08 07:42 42.03022 12.18405 2730 ft 232 kts 162°
2026-05-08 07:42 42.01517 12.19063 2481 ft 221 kts 162°
2026-05-08 07:42 42.00091 12.19667 2480 ft 210 kts 162°
2026-05-08 07:43 41.98733 12.20234 2479 ft 198 kts 162°
2026-05-08 07:43 41.97476 12.20759 2501 ft 180 kts 162°
2026-05-08 07:43 41.96342 12.21235 2450 ft 162 kts 162°
2026-05-08 07:43 41.95315 12.21668 2234 ft 149 kts 164°
2026-05-08 07:44 41.94370 12.22063 2039 ft 135 kts 164°
2026-05-08 07:44 41.93522 12.22420 1846 ft 124 kts 164°
2026-05-08 07:44 41.92740 12.22747 1693 ft 114 kts 164°
2026-05-08 07:44 41.92227 12.22962 1603 ft 115 kts 164°
2026-05-08 07:45 41.91202 12.23390 1397 ft 118 kts 164°
2026-05-08 07:45 41.90411 12.23720 1240 ft 120 kts 163°
2026-05-08 07:45 41.89612 12.24055 1068 ft 121 kts 163°
2026-05-08 07:45 41.88807 12.24396 914 ft 121 kts 163°
2026-05-08 07:46 41.87998 12.24733 764 ft 123 kts 164°
2026-05-08 07:46 41.87456 12.24962 658 ft 124 kts 161°
2026-05-08 07:46 41.86625 12.25300 485 ft 126 kts 163°
2026-05-08 07:46 41.85782 12.25663 326 ft 128 kts 162°
2026-05-08 07:47 41.84922 12.26016 130 ft 127 kts 163°
2026-05-08 07:47 41.84102 12.26361 24 ft 116 kts 162°
2026-05-08 07:47 41.83504 12.26610 17 ft 64 kts 161°
2026-05-08 07:47 41.83176 12.26647 14 ft 42 kts 190°
2026-05-08 07:48 41.82990 12.26594 14 ft 16 kts 193°
2026-05-08 07:48 41.82884 12.26563 15 ft 15 kts 190°
2026-05-08 07:48 41.82782 12.26589 15 ft 15 kts 163°
2026-05-08 07:48 41.82675 12.26632 15 ft 17 kts 163°
2026-05-08 07:49 41.82549 12.26683 14 ft 21 kts 163°
2026-05-08 07:49 41.82393 12.26746 15 ft 26 kts 163°
2026-05-08 07:49 41.82210 12.26824 14 ft 29 kts 162°
2026-05-08 07:49 41.82006 12.26915 14 ft 32 kts 163°
2026-05-08 07:50 41.81786 12.27003 15 ft 34 kts 162°
2026-05-08 07:50 41.81555 12.27104 15 ft 36 kts 160°
2026-05-08 07:50 41.81311 12.27208 16 ft 37 kts 162°
2026-05-08 07:50 41.81056 12.27307 16 ft 39 kts 163°
2026-05-08 07:51 41.80788 12.27325 16 ft 37 kts 189°
2026-05-08 07:51 41.80658 12.27228 16 ft 22 kts 238°
2026-05-08 07:51 41.80599 12.27016 17 ft 26 kts 250°
2026-05-08 07:51 41.80530 12.26767 18 ft 30 kts 248°
2026-05-08 07:52 41.80451 12.26497 19 ft 33 kts 251°
2026-05-08 07:52 41.80371 12.26195 18 ft 36 kts 249°
2026-05-08 07:52 41.80283 12.25873 17 ft 38 kts 248°
2026-05-08 07:52 41.80192 12.25536 18 ft 39 kts 250°
2026-05-08 07:53 41.80117 12.25275 17 ft 27 kts 250°
2026-05-08 07:53 41.80109 12.25007 18 ft 31 kts 278°
2026-05-08 07:53 41.80050 12.24799 17 ft 13 kts 191°
2026-05-08 07:53 41.79988 12.24744 17 ft 13 kts 237°
2026-05-08 07:54 41.79948 12.24623 17 ft 8 kts 236°
2026-05-08 07:54 41.79923 12.24616 17 ft 4 kts 162°
2026-05-08 07:54 41.79873 12.24642 17 ft 11 kts 160°
2026-05-08 07:54 41.79855 12.24650 17 ft 2 kts 160°
2026-05-08 07:55 41.79852 12.24652 17 ft 0 kts 160°